Wind_Speed
2 2 3 4 4 5 5 5 5 6 6 6 6 7 8 8 9 8 8 6 5 6 7 8 9 9 9 9 9 9 9 9 9 10 10 11 11 11 12 12 13 13 13
2 2 2 3 5 5 5 5 6 6 7 7 8 9 9 9 9 9 9 8 7 7 7 8 8 9 9 9 10 9 9 10 11 11 11 12 13 13 13 14 14 14 14
2 2 2 4 5 5 5 6 6 7 7 8 9 9 9 9 9 9 9 10 9 8 8 8 8 9 9 8 9 10 10 11 12 12 13 14 14 14 14 14 14 15 15
2 2 2 3 4 5 6 6 7 7 8 8 9 9 9 10 10 10 10 10 10 9 9 9 9 9 9 10 10 11 12 12 13 13 14 14 15 15 15 14 14 14 14
1 1 2 2 3 5 6 7 7 8 9 9 9 9 9 9 10 10 10 11 10 10 10 10 10 10 10 11 12 13 14 13 13 13 14 15 15 15 15 15 14 14 14
2 2 2 3 3 4 5 6 7 8 8 7 7 8 9 10 11 11 12 11 11 11 11 11 11 11 12 12 13 14 14 14 14 14 14 15 15 16 15 15 15 15 14
2 2 2 2 3 4 5 6 6 6 7 7 8 9 9 10 11 12 11 11 10 11 11 11 12 13 13 13 14 14 14 15 15 14 14 14 15 16 16 16 16 15 15
3 3 4 3 3 4 4 5 5 6 7 8 9 9 10 10 11 11 11 11 11 11 11 12 13 14 14 14 14 14 14 14 15 16 15 15 15 16 16 16 16 16 16
4 4 4 5 5 5 5 6 6 7 7 8 8 9 10 11 11 12 12 13 13 12 12 12 13 14 14 14 14 14 14 15 15 16 16 16 16 16 16 16 16 17 17
5 5 5 5 5 5 6 6 7 8 8 8 9 10 10 11 11 11 12 13 13 13 13 14 14 14 14 14 14 14 15 16 16 16 17 17 17 17 16 17 17 18 17
6 6 6 6 6 6 7 7 8 8 9 10 10 11 11 10 10 11 12 13 13 13 13 13 13 14 14 15 15 16 16 17 17 18 18 18 18 18 18 18 18 19 18
6 6 7 7 8 8 8 9 9 10 10 10 11 11 12 11 11 11 12 12 13 14 14 14 15 15 15 15 15 16 17 17 17 18 18 18 18 18 19 19 19 19 19
7 7 8 8 9 9 10 10 10 10 10 11 12 12 12 12 11 11 12 13 13 14 15 15 15 15 15 15 16 16 16 17 17 18 18 19 19 19 19 19 19 19 19
9 8 9 10 10 10 10 11 10 10 11 11 12 12 12 12 12 12 13 13 13 14 15 15 15 15 15 15 16 16 17 17 18 18 18 18 19 19 19 19 19 19 19
10 9 10 11 11 11 11 12 11 12 12 12 13 13 13 13 13 13 13 14 14 14 14 15 15 16 16 16 16 17 17 17 18 18 19 19 19 19 19 19 19 19 20
11 11 11 11 11 12 12 13 12 13 13 13 14 14 14 14 13 13 13 14 14 15 15 16 16 16 17 17 17 18 17 18 18 19 19 19 19 19 19 18 18 18 19
12 12 13 13 13 13 14 14 14 14 14 15 15 16 15 15 15 15 15 15 15 16 17 17 17 18 17 18 18 18 18 19 18 19 19 19 19 20 20 19 19 19 19
14 14 14 14 14 15 15 15 15 16 16 16 16 17 17 17 17 17 17 17 17 18 18 19 18 18 18 19 20 19 20 19 20 20 20 20 20 20 20 20 19 20 19
16 16 15 15 16 16 17 17 17 17 17 17 17 18 18 18 18 18 19 19 19 19 19 19 19 20 20 21 22 22 21 21 22 22 22 22 21 21 21 20 20 20 19
17 18 17 16 17 18 19 19 19 19 19 19 19 19 19 19 20 20 20 20 20 20 20 21 21 22 22 23 23 23 23 24 24 24 24 23 22 22 21 21 22 21 21
19 19 19 19 19 20 20 21 21 21 20 20 20 20 20 21 22 22 22 22 22 22 23 23 23 23 24 25 25 25 25 25 25 25 24 23 23 23 22 22 23 23 22
21 21 21 21 22 22 22 22 22 21 21 21 21 21 22 22 23 23 24 24 25 25 25 25 25 25 26 26 26 26 26 26 25 25 25 25 25 23 23 23 24 24 24
22 23 23 23 23 23 23 23 23 23 23 23 23 23 24 24 24 25 26 26 26 27 27 27 26 27 28 28 28 27 27 26 26 26 26 26 26 25 24 24 24 24 24
24 25 25 25 25 25 25 25 24 24 24 25 25 26 26 25 25 26 27 27 27 27 28 27 28 28 28 28 29 29 28 27 27 27 27 27 27 26 26 26 25 26 26
26 27 26 26 26 26 26 25 25 25 26 26 27 27 27 27 27 27 28 28 29 29 29 29 29 29 29 30 31 30 29 28 28 28 27 27 28 27 27 27 27 27 27
27 27 27 27 27 27 27 26 26 26 27 27 28 28 28 28 28 29 29 29 29 29 30 30 30 30 31 31 31 30 30 30 30 30 29 28 29 29 29 29 29 28 28
Wind_Direction
177 197 211 207 212 218 225 231 240 248 254 264 270 274 276 272 276 281 289 279 270 267 270 271 270 266 264 270 273 274 274 275 274 272 273 274 275 277 278 279 276 273 270
171 198 215 218 223 235 243 253 256 257 264 269 271 274 275 274 277 279 284 281 276 276 274 272 272 270 268 268 270 271 273 277 281 279 275 276 277 277 277 277 276 273 270
177 201 228 237 237 240 245 254 261 264 263 268 270 273 275 274 275 279 283 284 279 280 284 281 276 273 274 276 274 274 279 279 279 280 278 277 278 277 279 278 277 275 271
175 202 223 240 247 248 252 256 260 269 270 273 271 271 275 276 276 279 283 283 280 282 286 283 277 277 278 276 277 279 281 281 279 280 281 281 280 278 278 275 277 275 270
206 232 239 248 259 256 251 257 261 266 273 280 278 275 277 279 281 280 280 282 281 282 285 285 285 283 283 280 278 282 284 284 280 278 280 283 282 282 279 276 275 275 273
332 307 260 252 255 253 259 264 267 269 276 279 281 281 284 284 283 283 284 285 284 284 283 285 288 286 285 284 282 284 286 285 282 280 280 282 284 286 282 278 276 275 272
342 340 314 280 271 267 265 266 272 276 279 281 281 280 284 287 287 286 285 284 282 282 284 284 287 288 289 285 282 284 285 285 284 283 285 285 287 288 284 280 276 274 272
343 340 346 338 319 301 283 295 295 285 286 287 283 282 283 287 291 290 287 287 286 285 282 282 287 288 288 290 290 286 289 288 288 285 283 282 284 285 285 281 278 276 271
341 336 334 324 316 310 296 297 296 292 294 296 293 288 288 289 293 294 292 289 292 290 284 289 292 292 292 292 293 291 286 288 291 288 284 282 282 284 286 282 280 279 273
330 329 323 314 307 304 296 292 294 296 301 303 301 296 293 292 294 299 297 294 293 289 286 288 292 292 292 290 290 290 290 290 290 290 287 285 285 283 283 281 279 278 275
337 335 328 323 311 304 302 297 297 295 299 301 303 302 298 298 296 297 298 297 298 295 292 291 292 292 291 289 290 289 290 290 291 291 289 285 284 282 281 282 281 277 274
334 329 323 319 316 309 306 304 298 296 298 299 302 303 304 304 301 300 301 301 301 299 297 294 291 290 289 291 291 291 289 288 288 290 290 287 286 284 283 284 283 280 277
324 323 318 315 312 311 310 309 304 301 301 301 304 305 304 301 300 298 298 299 300 300 298 296 293 294 294 295 293 293 290 291 292 292 291 289 287 285 284 283 282 279 277
310 314 312 314 310 307 307 308 304 305 305 304 307 308 307 303 300 299 298 298 299 300 301 300 298 296 296 297 295 293 291 293 293 293 293 293 289 288 286 286 283 279 279
304 307 307 309 310 309 310 310 306 304 303 304 304 304 305 303 300 299 297 296 296 296 299 301 303 302 299 298 296 295 294 293 293 294 293 292 292 292 293 292 287 283 283
298 300 299 301 305 306 307 306 305 305 301 302 302 303 302 302 302 302 300 298 296 295 295 298 298 301 301 298 295 296 297 299 296 294 293 293 292 292 293 292 289 287 286
292 295 294 296 300 303 303 301 301 302 301 299 298 298 301 301 300 299 297 296 296 296 295 295 294 295 296 297 295 294 295 297 296 295 297 296 292 291 289 286 286 286 285
290 293 294 294 296 298 300 300 298 298 298 298 298 297 296 296 297 301 301 298 295 295 297 296 293 293 294 294 292 292 294 295 295 295 294 295 293 292 289 286 285 286 286
288 288 289 291 293 295 296 295 293 293 293 294 294 294 295 295 296 297 300 299 296 295 295 295 293 291 291 291 291 291 291 292 295 296 293 291 291 289 287 284 284 285 284
287 285 284 287 289 291 294 295 292 291 290 290 290 291 292 292 294 295 296 298 297 297 294 291 290 291 291 289 289 290 292 292 293 294 293 290 289 288 286 284 283 282 283
287 288 284 286 288 290 291 292 292 290 289 289 290 291 293 293 293 294 294 295 297 298 295 292 291 291 291 290 289 289 291 290 290 291 289 288 288 288 286 283 282 281 282
287 287 285 285 287 288 290 290 289 289 287 288 289 289 290 291 292 292 293 293 294 295 296 294 293 291 290 288 289 288 289 288 288 289 289 289 288 287 287 285 284 283 282
288 287 288 287 286 287 290 290 289 287 286 286 288 289 289 290 289 290 291 292 292 292 293 294 292 291 289 287 288 288 288 287 288 288 286 287 286 285 286 285 284 283 281
285 286 287 287 285 285 288 289 289 287 287 287 288 288 289 289 289 289 290 291 291 291 291 293 293 292 290 288 287 288 288 287 286 287 287 286 284 284 284 283 281 279 278
283 284 286 286 286 286 285 286 287 287 287 288 289 289 289 289 289 289 290 291 290 289 290 291 291 292 292 291 291 290 289 289 287 287 286 284 283 283 282 281 281 279 278
284 284 285 286 286 286 286 285 286 287 288 289 289 289 289 288 288 289 290 291 291 291 292 293 293 291 291 292 291 290 289 289 289 287 285 284 283 282 282 280 278 277 278
Height
5893 5893 5893 5893 5894 5894 5894 5894 5895 5895 5894 5894 5894 5894 5893 5893 5892 5891 5890 5889 5889 5889 5889 5889 5889 5888 5888 5888 5888 5887 5887 5887 5886 5886 5886 5885 5885 5884 5884 5883 5883 5882 5882
5893 5893 5893 5893 5893 5893 5894 5894 5894 5894 5894 5893 5893 5893 5892 5891 5891 5890 5889 5889 5888 5888 5888 5887 5887 5886 5886 5886 5886 5885 5885 5885 5884 5883 5883 5883 5882 5881 5881 5880 5879 5879 5878
5893 5893 5893 5893 5893 5893 5893 5893 5893 5893 5893 5892 5892 5891 5890 5890 5889 5889 5888 5888 5887 5886 5886 5885 5885 5885 5884 5884 5883 5883 5883 5882 5882 5881 5880 5880 5879 5878 5877 5876 5876 5875 5875
5893 5893 5892 5892 5892 5892 5892 5892 5892 5892 5891 5891 5890 5890 5889 5888 5888 5887 5887 5886 5885 5885 5884 5884 5883 5883 5882 5882 5881 5881 5880 5880 5879 5878 5877 5877 5876 5875 5874 5873 5872 5872 5871
5893 5892 5892 5891 5891 5891 5890 5890 5891 5890 5890 5889 5888 5888 5887 5887 5886 5886 5885 5884 5883 5883 5882 5882 5881 5881 5880 5879 5879 5878 5877 5876 5876 5875 5874 5873 5872 5871 5870 5870 5869 5869 5868
5892 5892 5891 5891 5890 5890 5889 5889 5889 5888 5888 5888 5887 5886 5886 5885 5884 5884 5883 5882 5881 5881 5880 5880 5879 5878 5878 5877 5876 5875 5874 5873 5872 5871 5870 5870 5869 5868 5867 5866 5865 5865 5865
5891 5891 5891 5890 5890 5889 5888 5888 5887 5887 5887 5886 5886 5885 5884 5883 5882 5881 5880 5880 5879 5878 5878 5877 5876 5875 5874 5874 5873 5872 5871 5870 5869 5868 5867 5866 5865 5864 5863 5862 5862 5861 5861
5891 5891 5890 5890 5889 5888 5888 5887 5887 5886 5885 5884 5884 5883 5882 5882 5880 5879 5878 5877 5876 5876 5875 5874 5874 5873 5872 5871 5869 5868 5867 5866 5865 5864 5863 5862 5861 5860 5859 5858 5857 5857 5857
5891 5890 5890 5889 5888 5887 5887 5886 5885 5884 5884 5883 5882 5881 5880 5879 5878 5877 5876 5875 5874 5873 5872 5871 5871 5870 5868 5867 5866 5865 5864 5863 5862 5860 5859 5858 5857 5856 5855 5854 5853 5853 5853
5890 5889 5889 5888 5887 5886 5885 5885 5884 5883 5882 5881 5880 5879 5878 5877 5876 5875 5874 5872 5871 5870 5869 5868 5867 5866 5865 5864 5863 5861 5860 5859 5858 5857 5856 5854 5853 5853 5852 5850 5850 5849 5849
5889 5888 5888 5887 5886 5885 5884 5883 5882 5881 5880 5879 5877 5876 5874 5874 5873 5872 5871 5870 5868 5867 5866 5865 5864 5863 5862 5860 5859 5858 5857 5855 5854 5852 5851 5850 5849 5848 5847 5846 5845 5844 5844
5889 5888 5887 5886 5885 5884 5883 5882 5881 5879 5878 5877 5875 5874 5873 5872 5871 5869 5868 5867 5865 5864 5863 5861 5860 5859 5858 5857 5855 5854 5853 5851 5850 5848 5847 5846 5844 5843 5842 5841 5840 5839 5839
5888 5887 5886 5884 5883 5882 5881 5880 5878 5877 5876 5875 5873 5872 5870 5869 5868 5867 5865 5864 5862 5861 5859 5858 5856 5855 5854 5853 5852 5850 5849 5847 5846 5844 5843 5841 5840 5839 5838 5836 5835 5834 5834
5886 5885 5884 5883 5881 5880 5879 5878 5876 5875 5874 5872 5871 5869 5868 5866 5865 5864 5862 5861 5859 5858 5856 5854 5853 5851 5850 5849 5848 5846 5845 5843 5841 5840 5838 5837 5836 5834 5833 5832 5831 5830 5829
5884 5883 5882 5881 5879 5878 5876 5875 5874 5872 5871 5869 5868 5867 5865 5864 5862 5861 5859 5858 5856 5854 5853 5851 5849 5847 5846 5845 5844 5842 5841 5839 5837 5836 5834 5833 5831 5830 5828 5827 5826 5825 5824
5881 5880 5879 5878 5876 5875 5874 5872 5871 5870 5868 5867 5865 5864 5862 5860 5859 5857 5855 5854 5852 5850 5849 5847 5846 5844 5842 5841 5839 5838 5837 5835 5833 5831 5830 5828 5827 5825 5824 5822 5821 5820 5819
5878 5877 5876 5875 5874 5872 5871 5869 5868 5866 5865 5863 5862 5860 5859 5857 5855 5853 5851 5850 5848 5846 5844 5843 5841 5839 5838 5836 5835 5833 5832 5830 5829 5827 5825 5824 5822 5820 5818 5817 5816 5815 5814
5874 5873 5872 5871 5870 5869 5867 5866 5864 5863 5861 5860 5858 5857 5855 5853 5851 5850 5847 5845 5844 5842 5840 5839 5837 5835 5833 5832 5830 5829 5827 5825 5824 5822 5820 5818 5817 5815 5813 5812 5811 5810 5808
5870 5869 5868 5867 5866 5865 5863 5862 5860 5859 5857 5856 5854 5852 5851 5849 5847 5845 5843 5841 5839 5837 5835 5834 5832 5830 5828 5826 5825 5823 5822 5820 5818 5816 5815 5813 5811 5810 5808 5807 5806 5805 5804
5866 5865 5863 5862 5861 5860 5859 5857 5856 5854 5853 5851 5849 5847 5846 5844 5842 5840 5838 5836 5834 5832 5830 5828 5826 5825 5823 5821 5819 5817 5816 5814 5813 5811 5809 5807 5806 5804 5803 5801 5800 5799 5798
5861 5860 5859 5857 5856 5855 5854 5852 5851 5849 5847 5846 5844 5842 5840 5839 5837 5835 5833 5831 5829 5827 5825 5823 5820 5819 5817 5815 5813 5811 5809 5808 5806 5804 5802 5801 5799 5798 5796 5795 5794 5793 5792
5856 5855 5854 5852 5851 5850 5848 5847 5845 5843 5841 5840 5838 5836 5835 5833 5831 5829 5827 5825 5823 5821 5819 5816 5814 5812 5810 5808 5806 5804 5803 5801 5799 5798 5796 5794 5793 5791 5790 5788 5787 5786 5786
5850 5849 5848 5846 5845 5844 5842 5840 5839 5837 5835 5834 5832 5830 5828 5827 5825 5823 5821 5818 5816 5814 5812 5809 5807 5805 5803 5801 5799 5797 5795 5793 5792 5790 5789 5787 5785 5784 5783 5781 5781 5780 5779
5844 5843 5841 5840 5839 5837 5836 5834 5832 5830 5828 5827 5825 5824 5822 5820 5818 5816 5813 5811 5809 5806 5804 5802 5800 5798 5795 5793 5791 5789 5787 5786 5784 5782 5781 5779 5778 5777 5775 5774 5773 5772 5771
5838 5836 5835 5833 5832 5831 5829 5827 5825 5823 5821 5820 5818 5816 5815 5813 5811 5808 5806 5803 5801 5798 5796 5794 5792 5789 5787 5785 5783 5781 5779 5777 5776 5774 5772 5771 5770 5768 5767 5766 5765 5764 5763
5831 5829 5828 5827 5825 5823 5822 5820 5818 5816 5815 5813 5811 5809 5807 5805 5803 5800 5798 5796 5793 5791 5788 5786 5783 5781 5779 5776 5774 5773 5771 5769 5767 5766 5764 5762 5761 5760 5759 5758 5756 5755 5754